Weather History for Price, UT

Change the Weather History Date:

Thursday, April 10, 2014

  Actual Average Record
Temperature  
Mean Temperature 58 °F -  
Max Temperature 73 °F 54 °F 75 °F (1992)
Min Temperature 44 °F 29 °F 14 °F (1999)
Degree Days  
Heating Degree Days 7    
Growing Degree Days 8 (Base 50)    
Moisture  
Dew Point 18 °F    
Average Humidity 23    
Maximum Humidity 37    
Minimum Humidity 10    
Precipitation  
Precipitation 0.00 in - - ()
Sea Level Pressure  
Sea Level Pressure 29.95 in    
Wind  
Wind Speed 9 mph (NW)    
Max Wind Speed 17 mph    
Max Gust Speed 28 mph    
Visibility 10 miles    
Events      
Averages and records for this station are not official NWS values.
T = Trace of Precipitation, MM = Missing Value Source: NWS Daily Summary

Daily Weather History Graph

Daily Weather History Graph

Search for Another Location

Airport:

Trip Planner

Search our weather history database for the weather conditions in past years. The results will help you decide how hot, cold, wet, or windy it might be!

Date:

Astronomy

Apr. 10, 2014 Rise Set
Actual Time 6:53 AM MDT 7:56 PM MDT
Civil Twilight 6:25 AM MDT 8:23 PM MDT
Nautical Twilight 5:52 AM MDT 8:56 PM MDT
Astronomical Twilight 5:18 AM MDT 9:30 PM MDT
Moon 3:44 PM MDT (4/10) 4:16 AM MDT (4/10)
Length of Visible Light 13h 58m
Length of Day
13h 03m
Waxing Gibbous, 80% of the Moon is Illuminated
Apr 10
Waxing Gibbous
Apr 15
Full
Apr 22
Last Quarter
Apr 29
New
May 6
First Quarter

Hourly Weather History & Observations

Time (MDT) Temp. Windchill Dew Point Humidity Pressure Visibility Wind Dir Wind Speed Gust Speed Precip Events Conditions
12:53 AM 59.0 °F - 12.9 °F 16% 29.87 in 10.0 mi NW 12.7 mph 20.7 mph N/A   Clear
1:53 AM 55.0 °F - 14.0 °F 20% 29.90 in 10.0 mi NW 8.1 mph - N/A   Clear
2:53 AM 46.9 °F - 15.1 °F 28% 29.91 in 10.0 mi NNW 6.9 mph - N/A   Clear
3:53 AM 44.1 °F 38.6 °F 16.0 °F 32% 29.93 in 10.0 mi North 10.4 mph - N/A   Clear
4:53 AM 46.0 °F 41.9 °F 18.0 °F 33% 29.93 in 10.0 mi North 8.1 mph - N/A   Clear
5:53 AM 44.1 °F 39.0 °F 19.0 °F 37% 29.94 in 10.0 mi North 9.2 mph - N/A   Clear
6:53 AM 45.0 °F 41.8 °F 19.9 °F 37% 29.96 in 10.0 mi NNW 5.8 mph - N/A   Clear
7:53 AM 50.0 °F - 21.2 °F 32% 30.09 in 10.0 mi NNE 5.8 mph - N/A   Clear
8:53 AM 55.0 °F - 23.0 °F 29% 30.01 in 10.0 mi West 3.5 mph - N/A   Clear
9:53 AM 60.1 °F - 19.0 °F 20% 29.99 in 10.0 mi Variable 3.5 mph - N/A   Clear
10:53 AM 64.0 °F - 18.0 °F 17% 30.00 in 10.0 mi Variable 4.6 mph - N/A   Clear
11:53 AM 66.0 °F - 17.1 °F 15% 30.00 in 10.0 mi Variable 5.8 mph - N/A   Clear
12:53 PM 69.1 °F - 14.0 °F 12% 29.91 in 10.0 mi WSW 10.4 mph 20.7 mph N/A   Clear
1:53 PM 70.0 °F - 16.0 °F 13% 29.91 in 10.0 mi Variable 6.9 mph 18.4 mph N/A   Clear
2:53 PM 72.0 °F - 16.0 °F 12% 29.93 in 10.0 mi WSW 17.3 mph 25.3 mph N/A   Mostly Cloudy
3:53 PM 72.0 °F - 12.9 °F 10% 29.93 in 10.0 mi West 16.1 mph 27.6 mph N/A   Partly Cloudy
4:53 PM 71.1 °F - 16.0 °F 12% 29.92 in 10.0 mi West 11.5 mph 26.5 mph N/A   Scattered Clouds
5:53 PM 70.0 °F - 18.0 °F 14% 29.93 in 10.0 mi NW 12.7 mph 18.4 mph N/A   Clear
6:53 PM 68.0 °F - 19.0 °F 15% 29.94 in 10.0 mi West 10.4 mph - N/A   Clear
7:53 PM 63.0 °F - 19.0 °F 18% 29.96 in 10.0 mi NW 8.1 mph - N/A   Clear
8:53 PM 57.9 °F - 16.0 °F 19% 29.96 in 10.0 mi NNW 5.8 mph - N/A   Clear
9:53 PM 50.0 °F - 19.9 °F 31% 30.00 in 10.0 mi NNE 10.4 mph - N/A   Clear
10:53 PM 48.9 °F - 21.0 °F 33% 29.97 in 10.0 mi NNW 6.9 mph - N/A   Clear
11:53 PM 48.9 °F - 23.0 °F 36% 29.96 in 10.0 mi North 10.4 mph - N/A   Clear